Smyrna, TN

4:47 AM CDT on April 27, 2017 (GMT -0500)
Smyrna

Weather History for KMQY - April, 2013

Change the Weather History Date:

Monday, April 22, 2013

  Actual Average Record
Temperature  
Mean Temperature 58 °F -  
Max Temperature 74 °F 67 °F 83 °F (2008)
Min Temperature 41 °F 50 °F 36 °F (2009)
Degree Days  
Heating Degree Days 8    
Growing Degree Days 8 (Base 50)    
Moisture  
Dew Point 44 °F    
Average Humidity 65    
Maximum Humidity 100    
Minimum Humidity 30    
Precipitation  
Precipitation 0.00 in - - ()
Sea Level Pressure  
Sea Level Pressure 30.24 in    
Wind  
Wind Speed 2 mph (SSE)    
Max Wind Speed 12 mph    
Max Gust Speed 16 mph    
Visibility 10 miles    
Events      
Averages and records for this station are not official NWS values.
T = Trace of Precipitation, MM = Missing Value Source: NWS Daily Summary

Daily Weather History Graph

Daily Weather History Graph

Search for Another Location

Airport or City:

Trip Planner

Search our weather history database for the weather conditions in past years. The results will help you decide how hot, cold, wet, or windy it might be!

Date:

Astronomy

Apr. 22, 2013 Rise Set
Actual Time 6:03 AM CDT 7:25 PM CDT
Civil Twilight 5:36 AM CDT 7:52 PM CDT
Nautical Twilight 5:04 AM CDT 8:25 PM CDT
Astronomical Twilight 4:31 AM CDT 8:58 PM CDT
Moon 4:19 PM CDT (4/22) 3:51 AM CDT (4/22)
Length of Visible Light 14h 15m
Length of Day
13h 22m
Waxing Gibbous, 88% of the Moon is Illuminated
Apr 22
Waxing Gibbous
Apr 25
Full
May 2
Last Quarter
May 9
New
May 17
First Quarter

Hourly Weather History & Observations

Time (CDT) Temp. Dew Point Humidity Pressure Visibility Wind Dir Wind Speed Gust Speed Precip Events Conditions
12:56 AM 46.4 °F 42.8 °F 87% 30.27 in 10.0 mi Calm Calm - N/A   Clear
1:56 AM 45.0 °F 41.9 °F 89% 30.29 in 10.0 mi Calm Calm - N/A   Clear
2:56 AM 43.9 °F 41.9 °F 93% 30.29 in 10.0 mi Calm Calm - N/A   Clear
3:56 AM 42.8 °F 42.8 °F 100% 30.27 in 8.0 mi Calm Calm - N/A   Clear
4:56 AM 41.9 °F 41.9 °F 100% 30.30 in 10.0 mi Calm Calm - N/A   Clear
5:56 AM 41.0 °F 41.0 °F 100% 30.31 in 10.0 mi Calm Calm - N/A   Clear
6:56 AM 41.9 °F 41.9 °F 100% 30.33 in 4.0 mi Calm Calm - N/A   Clear
7:56 AM 46.9 °F 43.9 °F 89% 30.33 in 10.0 mi Calm Calm - N/A   Clear
8:56 AM 56.8 °F 45.9 °F 67% 30.32 in 10.0 mi Calm Calm - N/A   Clear
9:56 AM 63.9 °F 45.9 °F 52% 30.32 in 10.0 mi South 8.1 mph - N/A   Clear
10:56 AM 66.9 °F 46.9 °F 49% 30.32 in 10.0 mi SSW 9.2 mph - N/A   Clear
11:56 AM 68.9 °F 45.9 °F 44% 30.29 in 10.0 mi South 9.2 mph - N/A   Clear
12:56 PM 70.0 °F 43.9 °F 39% 30.26 in 10.0 mi Calm Calm - N/A   Partly Cloudy
1:56 PM 73.9 °F 41.9 °F 32% 30.22 in 10.0 mi ESE 11.5 mph 16.1 mph N/A   Partly Cloudy
2:56 PM 72.0 °F 41.0 °F 33% 30.19 in 10.0 mi SSW 6.9 mph - N/A   Clear
3:56 PM 74.8 °F 41.0 °F 30% 30.17 in 10.0 mi ESE 9.2 mph - N/A   Partly Cloudy
4:56 PM 72.9 °F 41.9 °F 33% 30.16 in 10.0 mi Calm Calm - N/A   Clear
5:56 PM 72.9 °F 43.0 °F 34% 30.15 in 10.0 mi Calm Calm - N/A   Clear
6:56 PM 68.9 °F 43.9 °F 40% 30.14 in 10.0 mi Calm Calm - N/A   Clear
7:56 PM 63.0 °F 43.9 °F 50% 30.15 in 10.0 mi Calm Calm - 0.00 in   Clear
8:56 PM 56.8 °F 46.9 °F 69% 30.16 in 10.0 mi Calm Calm - N/A   Clear
9:56 PM 54.9 °F 46.9 °F 75% 30.17 in 10.0 mi Calm Calm - N/A   Clear
10:56 PM 52.9 °F 46.9 °F 80% 30.17 in 10.0 mi Calm Calm - N/A   Clear
11:56 PM 50.9 °F 46.9 °F 86% 30.17 in 10.0 mi Calm Calm - N/A   Clear